Location: ???? ??
(36.0534°N, 43.5630°E)
Time: 00:52:48
(UTC+00:00)

CENTAUR R/B - Pass Details

Date: 18 September 2019
Orbit: 780 x 1408 km, 63.4° (Epoch: 08 October)

Event Time Altitude Azimuth Distance (km) Brightness Sun altitude
Exits shadow 23:11:05 25° 69° (ENE) 1,811 4.3 -41.4°
Drops below altitude 10° 23:14:16 10° 48° (NE) 2,784 5.5 -41.0°
Sets 23:17:16 0° 40° (NE) 3,845 6.5 -40.5°
